Location: Aulnoy
(48.8410°N, 3.0967°E)
Time: 12:11:09
(UTC+00:00)

Cosmos 2208 Rocket - Visible Passes

Search period start: 28 September 2023 00:00
Search period end: 08 October 2023 00:00
Orbit: 752 x 805 km, 74.0° (Epoch: 28 September)

Date Brightness Start Highest point End Pass type
(mag) Time Alt. Az. Time Alt. Az. Time Alt. Az.
28 Sep 6.5 22:20:18 10° N 22:21:44 17° N 22:21:44 17° N visible
29 Sep 6.5 21:46:43 10° N 21:48:16 16° NNE 21:48:16 16° NNE visible
29 Sep 6.9 23:28:21 10° NNW 23:28:44 12° NNW 23:28:44 12° NNW visible
30 Sep 6.5 21:13:19 10° N 21:14:49 14° NNE 21:14:49 14° NNE visible
30 Sep 6.8 22:54:27 10° NNW 22:55:17 15° NNW 22:55:17 15° NNW visible
01 Oct 6.5 20:40:19 10° NNE 20:41:23 11° NNE 20:41:23 11° NNE visible
01 Oct 6.6 22:20:39 10° NNW 22:21:51 17° N 22:21:51 17° N visible
02 Oct 6.4 21:46:55 10° N 21:48:26 18° N 21:48:26 18° N visible
03 Oct 6.3 21:13:17 10° N 21:15:02 17° N 21:15:02 17° N visible
03 Oct 6.9 22:55:07 10° NNW 22:55:30 12° NNW 22:55:30 12° NNW visible
04 Oct 6.3 20:39:46 10° N 20:41:39 16° NNE 20:41:39 16° NNE visible
04 Oct 6.7 22:21:10 10° NNW 22:22:07 15° NNW 22:22:07 15° NNW visible
05 Oct 6.3 20:06:30 10° N 20:08:16 13° NNE 20:08:16 13° NNE visible
05 Oct 6.5 21:47:20 10° NNW 21:48:44 18° NNW 21:48:44 18° NNW visible
06 Oct 6.4 19:34:24 10° NNE 19:34:48 10° NE 19:34:54 10° NE visible
06 Oct 6.2 21:13:33 10° NNW 21:15:23 20° N 21:15:23 20° N visible
07 Oct 6.0 20:39:52 10° N 20:42:02 20° N 20:42:02 20° N visible
07 Oct 6.9 22:21:54 10° NNW 22:22:31 13° NNW 22:22:31 13° NNW visible
